Location: Washington
(38.8950°N, 77.0370°W)
Time: 13:48:58
(UTC-04:00)

IDEFIX/ARIANE 42P - Visible Passes

Search period start: 29 April 2016 00:00
Search period end: 09 May 2016 00:00
Orbit: 785 x 803 km, 98.2° (Epoch: 28 April)

Date Brightness Start Highest point End Pass type
(mag) Time Alt. Az. Time Alt. Az. Time Alt. Az.
30 Apr 5.6 20:48:16 10° WSW 20:50:16 12° W 20:52:18 10° WNW visible
04 May 5.3 20:33:15 10° SW 20:36:30 17° W 20:39:46 10° NW visible
07 May 5.7 20:49:40 10° WSW 20:51:22 11° W 20:53:04 10° WNW visible
